Retour au catalogue

STARLINK-30792

ActifCommunicationsVLEO
NORAD 58220·PAYLOAD·🇺🇸 United States

Lancé Nov 3, 2023 depuis Cape Canaveral Space Force Station

Loading…

Prochains Passages (prochaines 24 heures)

TLE

FraisSource: CelesTrak SupGP

Époque: Sep 14, 2026, 21:22 UTC

1 58220C 23170Q   26257.89076389  .00036109  00000+0  21191-2 0  2573
2 58220  42.9981 239.2285 0009650  85.7125 203.7761 15.10920000    16

Suivez STARLINK-30792 en temps réel avec AllMySat

Download on the App Store